Location: Unspecified
(40.7945°N, 0.0000°E)
Time: 03:16:45
(UTC+00:00)

Altair - Pass Details

Date: 23 January 2021
Orbit: 1501 x 1682 km, 47.2° (Epoch: 01 March)

Event Time Altitude Azimuth Distance (km) Brightness Sun altitude
Rises 11:38:20 0° 298° (WNW) 4,939 9.8 29.4°
Reaches altitude 10° 11:41:34 10° 296° (WNW) 3,943 9.4 29.5°
Maximum altitude 11:51:29 63° 218° (SW) 1,816 8.8 29.7°
Drops below altitude 10° 12:01:07 10° 141° (SE) 3,828 10.5 29.8°
Sets 12:04:12 0° 138° (SE) 4,787 10.8 29.9°
